📊 Raw Sensor Data

Showing records 36026 to 36050 of 84,888 total

ID Distance (ft) Battery V Battery A Int Temp (°F) Int Humid (%) Ext Temp (°F) Solar V RSSI SNR Time Stamp
48875 15.5 4.01 35 64 43 69 4.50 -70 8 08/11/2025 07:45 AM
48874 15.5 3.92 27 62 43 68 4.50 -70 8 08/11/2025 07:30 AM
48873 15.4 3.95 10 61 43 66 4.50 -71 8 08/11/2025 07:15 AM
48872 15.4 3.83 0 59 43 64 4.50 -69 8 08/11/2025 07:00 AM
48871 15.4 3.80 0 58 43 61 4.50 -69 8 08/11/2025 06:45 AM
48870 15.3 3.89 -8 57 44 59 4.50 -69 8 08/11/2025 06:30 AM
48869 15.3 3.88 -9 57 44 58 3.10 -68 8 08/11/2025 06:15 AM
48868 15.3 3.80 -5 57 44 58 0.50 -69 8 08/11/2025 06:00 AM
48867 15.3 3.80 -5 57 44 59 0.00 -69 8 08/11/2025 05:45 AM
48866 15.3 3.80 -5 58 44 59 0.00 -71 8 08/11/2025 05:30 AM
48865 15.3 3.80 -5 58 44 59 0.10 -68 8 08/11/2025 05:00 AM
48864 15.3 3.90 -5 58 44 59 0.00 -69 8 08/11/2025 04:45 AM
48863 15.3 3.90 -5 58 44 59 0.00 -70 7 08/11/2025 04:15 AM
48862 15.3 3.90 -5 59 44 60 0.00 -69 8 08/11/2025 04:00 AM
48861 15.3 3.90 -5 59 44 60 0.00 -69 8 08/11/2025 03:45 AM
48860 15.3 3.90 -5 60 44 61 0.00 -70 8 08/11/2025 03:30 AM
48859 15.3 3.79 -5 60 44 61 0.00 -69 8 08/11/2025 03:15 AM
48858 15.4 3.80 -5 60 44 61 0.10 -70 8 08/11/2025 03:00 AM
48857 15.3 3.79 -5 60 44 61 0.00 -70 8 08/11/2025 02:45 AM
48856 15.3 3.79 -5 60 45 62 0.00 -71 8 08/11/2025 02:30 AM
48855 15.4 3.79 -5 60 45 61 0.00 -70 8 08/11/2025 02:15 AM
48854 15.3 3.79 -5 61 45 62 0.10 -70 8 08/11/2025 02:00 AM
48853 15.3 3.79 -5 61 45 62 0.00 -70 8 08/11/2025 01:45 AM
48852 15.4 3.79 -5 62 45 63 0.00 -70 8 08/11/2025 01:30 AM
48851 15.3 3.80 -5 62 45 63 0.00 -71 8 08/11/2025 01:15 AM